GOES 9 1 23581U 95025A 12034.29813881 -.00000183 00000-0 10000-3 0 2833 2 23581 007.5690 058.9552 0005711 339.2070 020.8484 00.98802699 60924 GOES 11 1 26352U 00022A 12028.55393675 .00000012 00000-0 00000+0 0 6751 2 26352 000.9737 138.5801 0001710 342.5316 238.8776 00.99042364 42986 NADEZHDA 6 1 26384U 00033A 12034.95435808 +.00000292 +00000-0 +64215-4 0 08445 2 26384 098.2681 092.3307 0016841 087.9917 272.3205 14.64548820619698 NOAA 16 1 26536U 00055A 12035.25003146 .00000052 00000-0 52900-4 0 6112 2 26536 099.1140 075.1940 0011371 101.0143 259.2351 14.12701235586122 GOES 12 1 26871U 01031A 12035.10811289 -.00000283 00000-0 10000-3 0 4386 2 26871 001.9576 074.4691 0001626 278.8763 119.0072 01.00284775 38657 NOAA 17 1 27453U 02032A 12035.48808402 .00000175 00000-0 93540-4 0 5852 2 27453 098.3532 069.1891 0011604 184.4401 175.6691 14.24390094499723 INSAT 3A 1 27714U 03013A 12032.75534487 -.00000254 00000-0 10000-3 0 9546 2 27714 000.0942 257.6067 0006462 032.2911 206.8585 01.00273567 32322 NOAA 18 1 28654U 05018A 12035.52916992 -.00000039 00000-0 33512-5 0 626 2 28654 099.0288 352.6288 0014261 167.6967 192.4550 14.11598861345702 MSG 2 1 28912U 05049B 12034.04089951 .00000003 00000-0 00000+0 0 225 2 28912 000.3930 358.0569 0002311 213.6159 295.9788 01.00281076 22488 METOP-A 1 29499U 06044A 12034.89620040 +.00000045 +00000-0 +40532-4 0 06495 2 29499 098.7199 095.9185 0002168 083.4876 276.6521 14.21475990274642 NAVSTAR 59 (USA 192) 1 29601U 06052A 12035.36514800 .00000001 00000-0 10000-3 0 6193 2 29601 056.0579 060.3500 0037473 352.9312 007.0871 02.00574515 38222 NAVSTAR 60 (USA 196) 1 32260U 07047A 12035.18482682 -.00000034 00000-0 00000+0 0 3240 2 32260 054.2516 297.8956 0042736 357.7216 002.3104 02.00554063 31613 NAVSTAR 61 (USA 199) 1 32384U 07062A 12034.99761037 -.00000020 00000-0 10000-3 0 3606 2 32384 055.1673 121.5432 0024121 290.2404 069.5302 02.00566329 30335 NOAA 19 1 33591U 09005A 12035.50712652 .00000065 00000-0 59939-4 0 2504 2 33591 098.8518 337.0409 0014831 041.3025 318.9227 14.11289178154150 STERKH 1 35636U 09039B 12035.52216985 .00000072 00000-0 46156-4 0 2665 2 35636 082.9520 043.3188 0020906 137.2995 222.9808 13.89515916128911 STERKH 2 1 35866U 09049B 12035.20082567 .00000051 00000-0 42529-4 0 1355 2 35866 098.6731 092.6544 0004132 077.3214 282.8425 14.22435802123602